Location: Melizzano
(41.1500°N, 14.5000°E)
Time: 18:32:18
(UTC+00:00)

Meteor 1-19 Rocket - Pass Details

Date: 11 May 2021
Orbit: 808 x 927 km, 81.2° (Epoch: 21 June)

Event Time Altitude Azimuth Distance (km) Brightness Sun altitude
Exits shadow 22:19:13 61° 310° (NW) 920 4.4 -30.0°
Drops below altitude 10° 22:24:06 10° 3° (N) 2,401 7.4 -30.2°
Sets 22:26:32 0° 7° (N) 3,340 8.4 -30.3°
